Location: El Guaramo
(10.5194°N, 67.1667°W)
Time: 09:56:43
(UTC+00:00)

Cosmos 2181 Rocket - Pass Details

Date: 18 April 2024
Orbit: 952 x 1013 km, 82.9° (Epoch: 17 May)

Event Time Altitude Azimuth Distance (km) Brightness Sun altitude
Rises 23:41:05 0° 189° (S) 3,619 6.9 -15.5°
Reaches altitude 10° 23:43:35 10° 192° (SSW) 2,675 6.3 -16.1°
Maximum altitude 23:49:39 68° 274° (W) 1,029 4.3 -17.5°
Drops below altitude 10° 23:55:47 10° 356° (N) 2,702 6.6 -19.0°
Sets 23:58:19 0° 359° (N) 3,657 7.2 -19.6°
